EW7084 Weather Reports


Display with metric or nautical units.
time (UTC)temp
F
wind
direction
speed
MPH
gust
MPH
rain 1hr
in
rain 24hr
in
rain mn
in
humidity
%
barometer
mb
20260502204544 49 282 3.0 9.0 0.00 0.15 0.03 46 1013.9
20260502203042 50 297 2.0 10.0 0.00 0.15 0.03 44 1013.9
20260502201547 49 292 3.0 10.0 0.00 0.15 0.03 44 1013.9
20260502200054 50 280 1.0 7.0 0.00 0.15 0.03 43 1014.2
20260502194542 49 305 4.0 8.0 0.00 0.15 0.03 42 1014.5
20260502193043 50 257 2.0 9.0 0.00 0.15 0.03 43 1014.6
20260502191544 50 170 3.0 7.0 0.00 0.15 0.03 43 1014.8
20260502190046 50 284 5.0 10.0 0.00 0.15 0.03 42 1014.8
20260502184539 49 234 2.0 16.0 0.00 0.15 0.03 42 1015.0
20260502183038 49 321 3.0 11.0 0.00 0.15 0.03 43 1014.9
20260502181539 50 242 3.0 8.0 0.00 0.15 0.03 44 1015.0
20260502163041 50 5 2.0 8.0 0.00 0.15 0.03 42 1014.9
20260502161530 49 288 4.0 8.0 0.00 0.15 0.03 42 1015.0
20260502151549 47 278 3.0 8.0 0.00 0.15 0.03 49 1015.2
20260502150121 47 276 4.0 8.0 0.00 0.15 0.03 50 1015.1
20260502123005 42 278 4.0 9.0 0.00 0.15 0.03 81 1015.4
20260502121503 41 284 6.0 11.0 0.00 0.15 0.03 84 1015.5
20260502114503 41 287 2.0 7.0 0.00 0.15 0.03 89 1015.4
20260502113100 41 278 2.0 4.0 0.00 0.15 0.03 90 1015.5
20260502111600 40 279 0.0 2.0 0.00 0.15 0.03 90 1015.4
20260502104556 41 279 0.0 2.0 0.00 0.15 0.03 89 1015.1
20260502101608 40 279 0.0 2.0 0.00 0.15 0.03 89 1014.9
20260502090111 41 279 0.0 0.0 0.00 0.15 0.03 88 1014.4
20260502070050 42 302 0.0 0.0 0.00 0.15 0.03 88 1014.1
20260502064546 42 302 0.0 2.0 0.00 0.15 0.03 88 1014.1
20260502063047 42 302 1.0 3.0 0.00 0.15 0.03 88 1014.0
20260502061534 42 302 0.0 4.0 0.00 0.15 0.03 87 1014.0
20260502060033 42 302 2.0 5.0 0.00 0.15 0.03 87 1014.0
20260502054535 43 227 3.0 6.0 0.00 0.15 0.03 87 1013.9
20260502053029 44 227 0.0 2.0 0.01 0.15 0.03 88 1013.7
20260502051526 44 223 0.0 3.0 0.02 0.15 0.03 88 1013.6
20260502050035 44 223 0.0 2.0 0.03 0.15 0.03 88 1013.6
20260502044523 44 223 0.0 2.0 0.03 0.15 0.03 88 1013.9
20260502043022 44 219 2.0 4.0 0.02 0.14 0.02 87 1014.1
20260502041525 45 206 0.0 4.0 0.01 0.13 0.01 88 1013.8
20260502040016 45 233 0.0 3.0 0.00 0.12 0.00 88 1013.6
20260502034521 46 147 3.0 5.0 0.00 0.12 0.12 87 1013.6
20260502033014 46 147 0.0 2.0 0.01 0.12 0.12 87 1013.3
20260502030015 47 147 0.0 0.0 0.01 0.12 0.12 87 1013.5
20260502024518 47 147 0.0 0.0 0.03 0.12 0.12 86 1013.6
20260502023013 46 147 0.0 1.0 0.03 0.11 0.11 86 1013.4
20260502021512 46 147 0.0 0.0 0.03 0.11 0.11 85 1013.7
20260502020012 47 147 0.0 1.0 0.03 0.11 0.11 84 1013.7
20260502014515 46 147 0.0 0.0 0.02 0.09 0.09 84 1013.6
20260502013011 47 147 0.0 0.0 0.02 0.08 0.08 84 1013.5
20260502011511 47 147 0.0 0.0 0.02 0.08 0.08 83 1013.5
20260502010012 47 147 0.0 1.0 0.02 0.08 0.08 83 1013.5
20260502004510 47 147 0.0 1.0 0.02 0.07 0.07 81 1013.6
20260502003009 48 147 0.0 0.0 0.02 0.06 0.06 80 1013.5
20260502001513 48 147 0.0 1.0 0.04 0.06 0.06 80 1013.3
20260502000008 48 147 0.0 1.0 0.05 0.06 0.06 79 1013.3
20260501234508 49 147 0.0 1.0 0.05 0.05 0.05 78 1013.3
20260501233007 49 147 0.0 2.0 0.04 0.04 0.04 76 1013.1
20260501231506 48 147 1.0 4.0 0.02 0.02 0.02 75 1013.1
20260501230006 50 147 2.0 3.0 0.01 0.01 0.01 73 1013.1
20260501224505 50 147 2.0 5.0 0.00 0.00 0.00 68 1012.9
20260501223004 52 147 2.0 4.0 0.00 0.00 0.00 63 1012.7
20260501221510 52 148 3.0 7.0 0.00 0.00 0.00 59 1012.7
20260501220011 53 153 4.0 9.0 0.00 0.00 0.00 54 1012.5
20260501214503 54 298 3.0 5.0 0.00 0.00 0.00 53 1012.5
20260501213002 54 143 2.0 10.0 0.00 0.00 0.00 54 1012.5
20260501211505 54 288 1.0 7.0 0.00 0.00 0.00 52 1012.4
20260501210000 54 285 0.0 3.0 0.00 0.00 0.00 53 1012.6